Flag for French Polynesia Weather past 2 weeks in Taiohae, Marquesas Islands, French Polynesia

Now
87 °F

Passing clouds.


Feels Like: 93 °F
Forecast: 79 / 84 °F
Wind: 10 mph from Southeast

Location: Atuona

Current Time: Feb 1, 2015 at 4:54:15 PM

Latest Report: Feb 1, 2015 at 3:30 PM


Visibility: 28 mi

Pressure: 29.77 "Hg

Humidity: 63%

Dew point: 72 °F

Location of TaiohaeLocation

Historic Weather in Taiohae — Graph

°F

Taiohae temperature yesterday

Maximum temperature yesterday: 87 °F (at 11:30 AM)
Minimum temperature yesterday: 76 °F (at 4:30 AM)
Average temperature yesterday: 81 °F

Past Weeks' High & Low Weather Summary

 TemperatureHumidityPressure
High91 °F (Feb 1, 11:30 AM)93% (Jan 19, 4:30 AM)29.93 "Hg (Jan 19, 4:30 AM)
Low72 °F (Jan 24, 5:30 AM)47% (Jan 27, 4:30 PM)29.70 "Hg (Jan 26, 3:30 PM)
Average80 °F74%29.84 "Hg
* Reported Jan 17 3:30 PM — Feb 1 3:30 PM, Taiohae, Weather by CustomWeather, © 2014

Note: Actual official high and low records may vary slightly from our data, if they occured in-between our weather recording intervals... More about our weather records

Advertising

Taiohae weather history for previous 24 hours

 ConditionsComfort  
Time TempWeatherWind HumidityBarometerVisibility
3:30 PM
Feb 1
87 °FPassing clouds.10 mph63%29.77 "Hg28 mi
2:30 PM88 °FPassing clouds.12 mph61%29.78 "Hg28 mi
1:30 PM88 °FPassing clouds.14 mph61%29.80 "Hg28 mi
12:30 PM89 °FPassing clouds.15 mph60%29.82 "Hg28 mi
11:30 AM91 °FPassing clouds.13 mph56%29.84 "Hg28 mi
10:30 AM90 °FPassing clouds.12 mph58%29.86 "Hg28 mi
9:30 AM89 °FPassing clouds.12 mph61%29.87 "Hg28 mi
8:30 AM87 °FPassing clouds.9 mph63%29.88 "Hg28 mi
7:30 AM82 °FPassing clouds.3 mph70%29.87 "Hg28 mi
6:30 AM77 °FPassing clouds.1 mph82%29.86 "Hg28 mi
5:30 AM74 °FScattered clouds.3 mph86%29.85 "Hg25 mi
4:30 AM74 °FMild.1 mph85%29.83 "HgN/A
3:30 AM75 °FMild.3 mph84%29.82 "HgN/A
2:30 AM76 °FMild.2 mph83%29.81 "HgN/A
1:30 AM78 °FWarm.2 mph79%29.81 "HgN/A
12:30 AM77 °FWarm.No wind83%29.83 "HgN/A
11:30 PM
Jan 31
77 °FWarm.2 mph80%29.86 "HgN/A
10:30 PM79 °FWarm.3 mph74%29.88 "HgN/A
9:30 PM80 °FWarm.6 mph73%29.87 "HgN/A
8:30 PM81 °FWarm.7 mph71%29.87 "HgN/A
7:30 PM81 °FWarm.8 mph72%29.85 "HgN/A
6:30 PM81 °FWarm.9 mph70%29.84 "HgN/A
5:30 PM82 °FWarm.9 mph70%29.82 "HgN/A
4:30 PM83 °FWarm.10 mph67%29.80 "HgN/A
Weather by CustomWeather, © 2014

See weather overviewHow to use our weather pages